Starlink 5897

operational
NORAD ID: 55931 Int'l Des: 2023-037 Owner: SPXS Country: US Constellation: starlink
LEOCIRCULAR

Über Starlink 5897

Beschreibung wird geladen...

Live-Position

3D-Globus wird geladen...

Nächste Überflüge

Höhenverlauf

Altitude vs Time

uPlot chart will show altitude changes over time

Zweizeiliger Elementsatz

1 55931U 23037T 25349.85311416 .00002324 00000-0 20238-3 0 9999
2 55931 69.9998 155.6600 0003083 265.1042 94.9765 14.98346427150938
Epoch: 15. Dez. 2025 • Age: 20 hours

Aktueller Status

Höhe 577.7 km
Geschwindigkeit 7.57 km/s
Subsatellitenpunkt -18.76°S, 6.18°E
Startdatum 17. März 2023
Alter 2.7 years
Typ internet

Technische Details

Klassifizierung Payload
Masse 305.00 kg
Trockenmasse 290.00 kg
Gesamtmasse 305.00 kg
Länge 0.20 m
Durchmesser 2.80 m
Spannweite 9.00 m
Form Box + pan
Hersteller SPXS
Bus-Typ Starlink
Phasenstatus In Orbit
Besitzer/Staat SPXS/US

Große Konstellationen

Loading constellations...